Weather in Gostinovo

Russia / Oryol Oblast     52°45′23″N   36°19′57″E
temp.,
°C
wind,
m/s
gust,
m/s
humid.,
%
clouds,
%
prec.,
mm/h
press.,
hPa
HPBL,
m
13 may, thu
thu1300:00+7e4109538 0.0 1016214
03:00+6ese4109585 0.0 1016224
06:00+8ese51394100 0.1 1014457
09:00+11se71185100 0.4 1014946
12:00+13sse7107527 1.3 10141341
15:00+15s796174 1.6 10131679
18:00+14sse4773100 0.1 1013826
21:00+10s228579 0.1 101519
14 may, fri
fri1400:00+9sse338670 0.0 101527
03:00+9se358799 0.0 101579
06:00+10ese478686 0.0 1015149
09:00+15ese4782100 0.0 1014360
12:00+19se71076100 1.3 10121053
15:00+21sse81274100 3.6 10101295
18:00+19sse51080100 1.3 1009596
21:00+16sse51485100 1.8 1009443
15 may, sat
sat1500:00+14se489688 1.8 1009163
03:00+13s3696100 1.8 1009102
06:00+13s4894100 0.0 1010206
09:00+15ssw6108062 0.0 1010609
12:00+18ssw8106627 0.0 10111374
15:00+17sw697597 0.5 10121333
18:00+17sw58760 0.4 1012939
21:00+13s3589100 0.4 101388
16 may, sun
sun1600:00+12ssw359297 0.0 101484
03:00+11s359310 0.0 101480
06:00+12s24925 0.0 1015106
09:00+17ssw237516 0.0 1015446
12:00+20ssw34620 0.3 10151081
15:00+22ssw24539 0.3 10141908
18:00+22s126093 0.0 10141375
21:00+16ene237313 0.0 101419
17 may, mon
mon1700:00+15ene34819 0.0 101445
03:00+15ene410785 0.0 1013198
06:00+14e4119031 0.1 1012227
09:00+20ese7117495 0.1 1011456
12:00+24se7115866 0.0 1010820
15:00+25se7116066 0.0 10091152
18:00+23se6126721 0.0 1008652
21:00+19se6167342 0.0 1008435